TIANWANG 1C (TW-1C)
1 40926U 15051B   17361.48112839  .00009237  00000-0  18846-3 0  9998
2 40926  97.2065  39.7361 0010463 176.0709 292.4792 15.46362290126759
TIANWANG 1B (TW-1B)
1 40927U 15051C   17361.49884631  .00009057  00000-0  19234-3 0  9998
2 40927  97.2160  39.6778 0010003 186.5883 283.2990 15.45195600126684
TIANWANG 1A (TW-1A)
1 40928U 15051D   17361.54196662  .00003631  00000-0  10018-3 0  9998
2 40928  97.2064  33.8371 0010946 214.2627 302.7432 15.37674155126398
LAPAN A2
1 40931U 15052B   17360.95370912  .00000597  00000-0 -59064-5 0  9994
2 40931   5.9989 298.2287 0012945  89.8372 270.3414 14.76559136121502
LQSAT
1 40958U 15057A   17361.44170759  .00000051  00000-0  15661-4 0  9998
2 40958  97.9600  73.1975 0018524 162.7887 197.3954 14.73009126119563
CHUBUSAT 2
1 41338U 16012B   17360.95639284 +.00000421 +00000-0 +26253-4 0  9991
2 41338 031.0045 327.8369 0013938 168.1361 191.9604 14.99895521101951
CHUBUSAT 3
1 41339U 16012C   17361.32470091  .00000376  00000-0  22584-4 0  9995
2 41339  31.0106 324.3437 0013735 178.5413 181.5265 15.00089010101999
OUFTI-1
1 41458U 16025C   17361.10072958  .00001278  00000-0  71211-4 0  9990
2 41458  98.1594  49.5974 0171895   4.8234 355.4650 15.04086593 91560
E-STAR-2
1 41459U 16025D   17361.07941769  .00001973  00000-0  10784-3 0  9991
2 41459  98.1619  49.4764 0172195   5.4614 354.8445 15.03870036 91554
AAUSAT 4
1 41460U 16025E   17361.40884514  .00002708  00000-0  14532-3 0  9996
2 41460  98.1559  50.0892 0164035   1.5966 358.5758 15.05091903 91648
NUSAT 1
1 41557U 16033B   17361.20849566  .00001761  00000-0  67350-4 0  9993
2 41557  97.4500  80.6739 0015127  50.4012 309.8560 15.27863131 87890
BEESAT 4
1 41619U 16040W   17360.73526198  .00002000  00000-0  91553-4 0  9999
2 41619  97.4394  61.1014 0013328 112.3975 247.8674 15.21605774 71865
PRATHAM
1 41783U 16059A   17360.77485847  .00000064  00000-0  21972-4 0  9996
2 41783  98.1432  59.9006 0032329 277.0132  82.7394 14.62890072 66758
ALSAT 1N
1 41789U 16059G   17361.35516076  .00000100  00000-0  28290-4 0  9997
2 41789  98.1435  61.3520 0026913 268.3948  91.4170 14.64114175 66872
NAYIF 1
1 42017U 17008BX  17360.89104528 +.00002279 +00000-0 +97384-4 0  9999
2 42017 097.4721 061.8175 0004926 263.2985 096.7691 15.23884580047823
LILACSAT-1
1 42725U 98067ME  17361.46211182  .00024760  00000-0  28119-3 0  9996
2 42725  51.6367 148.9222 0004774 303.5823  56.4715 15.62174454 33614
MAX VALIER SAT
1 42778U 17036P   17360.89433687 +.00001343 +00000-0 +63734-4 0  9998
2 42778 097.4284 058.2734 0011553 318.4047 041.6309 15.20937168028314
